Weather reports worldwide

Advertisment
A12-CPP, Netherlands (6205): temperature & dewpoint: 22.10.2020 16:00:00 - 28.10.2020 16:00:00 (CET)A12-CPP, Netherlands (6205): wind speed & gusts: 22.10.2020 16:00:00 - 28.10.2020 16:00:00 (CET)A12-CPP, Netherlands (6205): wind direction: 22.10.2020 16:00:00 - 28.10.2020 16:00:00 (CET)A12-CPP, Netherlands (6205): reduced air pressure: 22.10.2020 16:00:00 - 28.10.2020 16:00:00 (CET)A12-CPP, Netherlands (6205): visibility: 22.10.2020 16:00:00 - 28.10.2020 16:00:00 (CET)
Date & Time tt [°C] td [°C] ff [km/h] ff [kn] fx [km/h] fx [kn] dd ppp [hPa] vv [km]
28.10.2020 16:00:00 - - - - - - - - -
28.10.2020 15:00:00 10,9 6,8 47 25 58 31 SW 996,3 21
28.10.2020 14:00:00 10,8 6,6 59 32 58 31 SW 996,1 10
28.10.2020 13:00:00 10,9 6,8 50 27 61 33 SW 996,2 26
28.10.2020 12:00:00 10,9 6,8 55 30 72 39 SW 996,0 10
28.10.2020 11:00:00 11,1 7,4 57 31 61 33 SW 995,7 10
28.10.2020 10:00:00 11,1 7,3 47 25 61 33 SW 995,5 19
28.10.2020 09:00:00 11,1 7,0 65 35 65 35 SW 995,1 10
28.10.2020 08:00:00 11,0 7,0 59 32 65 35 SW 994,3 10
28.10.2020 07:00:00 11,0 6,3 54 29 61 33 SW 993,8 19
28.10.2020 06:00:00 10,9 6,2 50 27 61 33 SW 993,8 21
28.10.2020 05:00:00 11,0 6,2 50 27 65 35 SW 993,3 21
28.10.2020 04:00:00 11,0 6,4 61 33 65 35 WSW 992,8 10
28.10.2020 03:00:00 11,2 6,3 59 32 58 31 WSW 992,3 10
28.10.2020 02:00:00 11,2 6,5 59 32 61 33 WSW 991,7 10
28.10.2020 01:00:00 11,4 6,0 63 34 72 39 WSW 991,0 10
28.10.2020 00:00:00 11,5 5,8 70 38 72 39 WSW 989,3 10
27.10.2020 23:00:00 11,6 8,2 65 35 65 35 WSW 988,5 10
27.10.2020 22:00:00 12,1 11,5 55 30 65 35 S 987,7 3,2
27.10.2020 21:00:00 11,6 10,9 61 33 61 33 S 988,4 4,0
27.10.2020 20:00:00 11,1 10,0 52 28 54 29 SSE 990,3 3,9
27.10.2020 19:00:00 10,4 8,2 44 24 47 25 S 992,0 7
27.10.2020 18:00:00 11,5 6,7 44 24 47 25 SSW 992,6 10
27.10.2020 17:00:00 11,4 7,4 39 21 43 23 - 993,4 10
27.10.2020 16:00:00 11,4 5,3 35 19 47 25 SW 993,9 10
27.10.2020 15:00:00 11,1 5,8 40 21 50 27 SW 994,5 45
27.10.2020 14:00:00 11,1 6,5 52 28 50 27 SW 994,9 10
27.10.2020 13:00:00 11,0 7,1 48 26 47 25 SW 995,1 10
27.10.2020 12:00:00 10,9 6,7 50 27 54 29 SW 995,1 10
27.10.2020 11:00:00 10,9 7,4 55 30 54 29 WSW 994,6 10
27.10.2020 10:00:00 10,4 7,6 52 28 54 29 WSW 994,4 10
27.10.2020 09:00:00 10,2 8,1 50 27 54 29 WSW 993,9 10
27.10.2020 08:00:00 11,1 7,9 50 27 50 27 WSW 993,3 10
27.10.2020 07:00:00 10,4 7,9 34 18 43 23 WSW 993,1 10
27.10.2020 06:00:00 9,7 7,6 48 26 50 27 WSW 992,7 10
27.10.2020 05:00:00 10,1 7,2 36 19 58 31 WSW 991,9 17
27.10.2020 04:00:00 10,9 8,2 55 30 54 29 SW 991,2 10
27.10.2020 03:00:00 10,8 8,2 54 29 54 29 WSW 991,5 10
27.10.2020 02:00:00 11,0 8,2 50 27 50 27 SW 991,5 10
27.10.2020 01:00:00 10,5 8,1 54 29 54 29 SW 991,5 10
27.10.2020 00:00:00 10,9 7,2 54 29 58 31 SW 991,7 10
26.10.2020 23:00:00 11,7 7,5 42 23 50 27 SW 991,6 10
26.10.2020 22:00:00 11,7 7,3 48 26 50 27 SW 991,7 10
26.10.2020 21:00:00 10,6 7,5 34 18 50 27 SW 991,6 10
26.10.2020 20:00:00 10,6 8,4 37 20 50 27 SW 991,3 10
26.10.2020 19:00:00 10,6 6,5 32 18 54 29 SW 991,2 9
26.10.2020 18:00:00 11,3 7,4 41 22 50 27 - 991,4 10
26.10.2020 17:00:00 11,5 7,1 46 25 47 25 S 991,5 10
26.10.2020 16:00:00 11,5 7,1 44 24 47 25 S 991,7 10
26.10.2020 15:00:00 11,6 6,5 36 19 47 25 S 992,0 33
26.10.2020 14:00:00 11,7 6,8 44 24 43 23 S 992,3 10
26.10.2020 13:00:00 11,6 6,1 42 23 43 23 S 992,7 10
26.10.2020 12:00:00 11,5 6,3 41 22 43 23 S 992,9 10
26.10.2020 11:00:00 11,5 6,3 41 22 40 21 S 993,0 10
26.10.2020 10:00:00 11,5 6,7 39 21 40 21 S 993,3 10
26.10.2020 09:00:00 11,5 7,1 39 21 40 21 SSW 993,2 10
26.10.2020 08:00:00 11,5 6,8 35 19 40 21 S 992,9 10
26.10.2020 07:00:00 11,6 7,3 35 19 36 19 S 992,7 10
26.10.2020 06:00:00 11,6 7,6 35 19 36 19 S 992,8 10
26.10.2020 05:00:00 11,7 7,1 37 20 40 21 SW 992,8 10
26.10.2020 04:00:00 11,8 7,8 39 21 40 21 SW 992,9 10
26.10.2020 03:00:00 11,9 7,7 35 19 40 21 S 993,2 9
26.10.2020 02:00:00 11,9 7,9 34 18 36 19 S 993,6 10
26.10.2020 01:00:00 12,1 7,4 37 20 36 19 SW 993,9 10
26.10.2020 00:00:00 12,2 7,1 34 18 40 21 SW 994,1 10
25.10.2020 23:00:00 12,2 7,6 41 22 43 23 SW 994,2 10
25.10.2020 22:00:00 12,2 7,4 41 22 43 23 SW 994,2 10
25.10.2020 21:00:00 12,1 7,2 44 24 47 25 SW 994,1 10
25.10.2020 20:00:00 12,3 7,3 48 26 47 25 SW 993,9 10
25.10.2020 19:00:00 12,1 7,4 46 25 50 27 SW 994,1 10
25.10.2020 18:00:00 12,1 7,2 41 22 47 25 S 994,2 10
25.10.2020 17:00:00 11,9 7,3 41 22 47 25 SW 994,0 10
25.10.2020 16:00:00 12,0 7,0 42 23 50 27 SW 993,7 10
25.10.2020 15:00:00 12,0 6,9 42 23 54 29 SSW 993,5 10
25.10.2020 14:00:00 12,1 7,3 46 25 50 27 SW 993,5 10
25.10.2020 13:00:00 12,2 7,1 48 26 50 27 SW 993,8 10
25.10.2020 12:00:00 12,2 7,5 46 25 50 27 SW 993,7 10
25.10.2020 11:00:00 12,2 6,2 41 22 50 27 SSW 993,8 10
25.10.2020 10:00:00 12,2 6,7 42 23 54 29 SSW 993,7 10
25.10.2020 09:00:00 11,9 7,1 48 26 50 27 SW 993,2 10
25.10.2020 08:00:00 12,1 7,9 40 21 47 25 SW 992,7 48
25.10.2020 07:00:00 11,7 8,0 42 23 43 23 SW 992,4 10
25.10.2020 06:00:00 11,5 7,8 42 23 43 23 WSW 991,7 10
25.10.2020 05:00:00 11,6 7,9 42 23 47 25 WSW 991,2 10
25.10.2020 04:00:00 12,1 9,0 48 26 61 33 WSW 990,6 10
25.10.2020 03:00:00 13,0 10,6 54 29 61 33 SW 989,9 10
25.10.2020 02:00:00 12,8 11,5 55 30 61 33 SW 990,1 4,3
25.10.2020 01:00:00 - - - - - - - - -
25.10.2020 00:00:00 13,5 12,1 59 32 68 37 SW 989,9 8
24.10.2020 23:00:00 13,5 13,3 68 37 79 43 S 989,6 1,6
24.10.2020 22:00:00 14,4 12,6 68 37 72 39 S 991,0 8
24.10.2020 21:00:00 14,6 12,6 67 36 76 41 S 992,1 10
24.10.2020 20:00:00 14,3 12,2 67 36 65 35 S 993,4 10
24.10.2020 19:00:00 13,9 11,9 61 33 61 33 S 994,6 10
24.10.2020 18:00:00 13,9 11,8 50 27 65 35 S 995,9 14
24.10.2020 17:00:00 13,8 11,6 59 32 68 37 S 996,6 10
24.10.2020 16:00:00 13,7 10,9 59 32 65 35 S 997,5 10
24.10.2020 15:00:00 13,3 10,3 59 32 61 33 S 998,4 10
24.10.2020 14:00:00 13,1 9,5 61 33 65 35 SSW 998,9 10
24.10.2020 13:00:00 12,9 8,7 55 30 61 33 S 999,9 10
24.10.2020 12:00:00 12,5 8,2 57 31 65 35 S 1000,8 10
24.10.2020 11:00:00 12,2 7,1 54 29 58 31 SSW 1001,1 10
24.10.2020 10:00:00 11,7 6,5 44 24 54 29 SSW 1001,9 10
24.10.2020 09:00:00 11,6 6,0 39 21 47 25 SSW 1002,8 10
24.10.2020 08:00:00 11,6 5,7 42 23 50 27 SSW 1003,0 10
24.10.2020 07:00:00 11,4 5,9 42 23 43 23 SW 1003,2 10
24.10.2020 06:00:00 11,3 5,2 41 22 43 23 SW 1003,7 10
24.10.2020 05:00:00 11,2 6,3 39 21 40 21 SW 1004,1 10
24.10.2020 04:00:00 11,0 6,3 37 20 36 19 WSW 1004,2 10
24.10.2020 03:00:00 11,3 5,8 34 18 32 18 WSW 1004,6 10
24.10.2020 02:00:00 11,3 6,0 25 14 32 18 W 1004,4 46
24.10.2020 01:00:00 11,4 6,7 34 18 32 18 WNW 1004,0 10
24.10.2020 00:00:00 11,6 7,6 29 16 32 18 WNW 1003,8 10
23.10.2020 23:00:00 11,5 8,4 31 17 36 19 W 1004,0 10
23.10.2020 22:00:00 11,1 8,6 34 18 36 19 W 1003,6 10
23.10.2020 21:00:00 11,0 8,5 35 19 36 19 WSW 1003,0 10
23.10.2020 20:00:00 11,6 7,4 44 24 50 27 WSW 1002,7 10
23.10.2020 19:00:00 11,9 7,8 42 23 50 27 WSW 1002,5 10
23.10.2020 18:00:00 11,9 9,1 32 18 43 23 SW 1002,8 49
23.10.2020 17:00:00 11,6 9,5 31 17 32 18 SW 1002,7 10
23.10.2020 16:00:00 10,6 9,7 13 7 18 10 WSW 1002,8 10
23.10.2020 15:00:00 10,6 9,8 13 7 25 14 W 1002,9 6
23.10.2020 14:00:00 10,3 9,5 22 12 22 12 SW 1003,6 6
23.10.2020 13:00:00 10,5 9,0 28 15 32 18 S 1004,5 9
23.10.2020 12:00:00 11,6 7,1 37 20 36 19 SW 1005,1 10
23.10.2020 11:00:00 11,6 6,7 41 22 47 25 SW 1005,6 10
23.10.2020 10:00:00 11,2 5,7 32 18 40 21 SW 1005,7 46
23.10.2020 09:00:00 11,0 4,1 35 19 43 23 SW 1006,0 10
23.10.2020 08:00:00 11,4 5,1 37 20 43 23 SW 1005,9 10
23.10.2020 07:00:00 11,3 6,4 34 18 40 21 WSW 1005,6 10
23.10.2020 06:00:00 11,2 7,3 37 20 36 19 WSW 1005,9 10
23.10.2020 05:00:00 11,3 8,5 41 22 43 23 WSW 1005,7 10
23.10.2020 04:00:00 11,2 9,5 29 16 40 21 WSW 1005,8 19
23.10.2020 03:00:00 11,9 9,1 26 14 25 14 WSW 1006,0 10
23.10.2020 02:00:00 12,0 7,6 21 11 22 12 W 1006,1 10
23.10.2020 01:00:00 11,9 9,5 26 14 29 16 WNW 1005,7 10
23.10.2020 00:00:00 12,0 8,9 29 16 36 19 WNW 1005,4 10
22.10.2020 23:00:00 11,9 10,4 35 19 40 21 W 1004,7 10
22.10.2020 22:00:00 12,0 10,4 44 24 43 23 W 1004,2 10
22.10.2020 21:00:00 12,3 9,9 54 29 61 33 W 1003,5 10
22.10.2020 20:00:00 12,4 10,2 59 32 58 31 WSW 1002,0 10
22.10.2020 19:00:00 12,6 9,9 59 32 58 31 WSW 1001,8 10
22.10.2020 18:00:00 12,5 10,0 61 33 61 33 WSW 1001,5 9
22.10.2020 17:00:00 12,5 9,8 61 33 61 33 WSW 1000,6 10
22.10.2020 16:00:00 11,9 9,3 50 27 65 35 WSW 1000,5 7

tt = temperature
td = dewpoint
ff = wind speed
fx = gusts
dd = wind direction
ppp = reduced air pressure
vv = visibility

Next stations